Showing default

LAYAN-23, 56939

Orbit data source: Space-Track

LAYAN-23, 56939 is a payload satellite owned by OQ Tech (RW) in SSO that was launched on Mon, 12 Jun 2023 UTC via an FALCON 9 launch vehicle from the Air Force Western Test Range (AFWTR). Payload-class satellites include a variety of spacecraft equipped with specific instruments for various scientific and technological missions. These include communications satellites like Starlink; space stations such as the ISS; scientific satellites like the Hubble; Earth observation satellites from companies like Planet Labs, Umbra, and HawkEye 360; GPS; miniature CubeSats for education and research; and military/defense satellites.

Not visible in the next 10 days
Identifier
56939, 2023-084H
Orbit
SSO
Country
Flag of RWRW / RWA
Related business
Manufacturer
NanoAvionics
Mission
Operational Commercial Communications
Bus & Motor
CUBESAT 6U, Unknown motor
Mass
~10 kg wet, ~10 kg dry
Launch date (UTC)
2023-06-12 (2 years ago)
Launch vehicle
FALCON 9
Launch site
Air Force Western Test Range (AFWTR)
Object type
Payload
Rocket body
Debris
Shape & HBR
Box + 2 Pan, 0.1 m
Radar Cross Section
0.080 m², Medium (>0.1 m² and < 1m²)

Expand to show TLE details & history
Last TLE update: 12 hours ago

TLE from 12 hours ago
0 LAYAN-23
1 56939U 23084H   25286.55503995  .00533209  13709-3  77989-3 0  9991
2 56939  97.5455  80.4012 0003455 183.9093 176.2161 16.05152758131418
Epoch: 2025-10-13T13:19Z
TLE epoch observation values (Epoch: 2025-10-13T13:19:15.451Z)
Latitude
-0.00005°
Longitude
-141.76932°
Altitude
265.664 km
Speed
7.746 km/s
True Right ascension
05h 21m 36s
True Declination
0° 00' 00"
Sunlit
Object was in full shadow at epoch
Visualization orbit readout
Latitude
Unknown
Longitude
Unknown
Altitude
Unknown
Speed
Unknown
Apparent Right ascension
Unknown
Apparent Declination
Unknown
Sunlit
N/A
Visualization observer readout
Local Sidereal Time
19:21:07
Azimuth
Unknown
Elevation
Unknown
Doppler factor
Unknown
Orbital elements
Apogee altitude
259.326 km
Perigee altitude
254.741 km
Semi-major axis
6,635.171 km
Eccentricity
0.00035
Inclination
97.5455°
RAAN
80.4012°
Arg. of periapsis
183.9093°
True anomaly
176.21871°
Mean anomaly
176.2161°
Eccentric anomaly
176.21741°
Mean motion
4.01573 °/min
Orbital period
89.65 mins
BSTAR
0.00077989
Loading maneuver chart data...
Computing Atmospheric mass density...
Loading historical data...
Loading historical data...
Loading historical data...
Loading historical data...
Loading historical data...
Loading historical data...
Loading historical data...

Documentation

Showing up to 5 results
|